Location: Crescent
(42.8242°N, 73.7329°W)
Time: 06:57:39
(UTC+00:00)

Explorer 7 - Pass Details

Date: 19 February 2026
Orbit: 430 x 541 km, 50.2° (Epoch: 9 March)

Event Time Altitude Azimuth Distance (km) Brightness Sun altitude
Rises 22:22:52 0° 292° (WNW) 2,476 11.1 0.8°
Reaches altitude 10° 22:25:14 10° 306° (NW) 1,622 9.8 0.3°
Maximum altitude 22:28:21 25° 4° (N) 988 8.0 -0.2°
Drops below altitude 10° 22:31:34 10° 62° (ENE) 1,681 8.7 -0.8°
Enters shadow 22:33:39 - 74° (ENE) 2,431 9.4 -1.2°
Sets 22:34:04 0° 76° (ENE) 2,587 - -1.2°
